Flag for Canada Weather past 2 weeks in Churchill, Manitoba, Canada

32 °F

Light snow. Overcast.

Feels Like: 17 °F
Forecast: 30 / 42 °F
Wind: 32 mph from Northwest

Location: Churchill

Current Time: Oct 8, 2015 at 11:25:09 AM

Latest Report: Oct 8, 2015 at 11:00 AM

Visibility: 15 mi

Pressure: 29.90 "Hg

Humidity: 80%

Dew point: 27 °F

Location of ChurchillLocation

Historic Weather in Churchill — Graph


Churchill temperature yesterday

Maximum temperature yesterday: 43 °F (at 12:00 PM)
Minimum temperature yesterday: 32 °F (at 8:00 AM)
Average temperature yesterday: 38 °F

Past Weeks' High & Low Weather Summary

High70 °F (Oct 2, 3:00 PM)100% (Sep 27, 2:00 AM)30.48 "Hg (Sep 27, 2:00 AM)
Low25 °F (Sep 30, 2:00 AM)35% (Oct 2, 4:00 PM)29.24 "Hg (Sep 28, 12:00 AM)
Average43 °F79%30.01 "Hg
* Reported Sep 23 10:00 AM — Oct 8 10:00 AM, Churchill, Weather by CustomWeather, © 2015

Note: Actual official high and low records may vary slightly from our data, if they occured in-between our weather recording intervals... More about our weather records


Churchill weather history for previous 24 hours

Time TempWeatherWind HumidityBarometerVisibility
10:00 AM
Thu, Oct 8
32 °FLight snow. Overcast.29 mph87%29.86 "Hg15 mi
9:00 AM32 °FLight snow. Overcast.26 mph87%29.83 "Hg15 mi
8:00 AM34 °FMostly cloudy.28 mph81%29.82 "Hg15 mi
7:00 AM39 °FPassing clouds.18 mph87%29.78 "Hg15 mi
6:00 AM39 °FPassing clouds.12 mph87%29.77 "Hg15 mi
5:00 AM39 °FMostly cloudy.14 mph87%29.76 "Hg15 mi
4:00 AM37 °FPartly cloudy.13 mph87%29.77 "Hg14 mi
3:00 AM37 °FPartly cloudy.9 mph87%29.77 "Hg15 mi
2:00 AM37 °FPassing clouds.12 mph93%29.77 "Hg15 mi
1:00 AM39 °FPartly cloudy.13 mph87%29.76 "Hg15 mi
12:00 AM39 °FSprinkles. Mostly cloudy.14 mph87%29.77 "Hg15 mi
11:00 PM
Wed, Oct 7
41 °FOvercast.18 mph70%29.79 "Hg15 mi
10:00 PM41 °FPartly cloudy.13 mph70%29.82 "Hg15 mi
9:00 PM41 °FPassing clouds.10 mph70%29.85 "Hg15 mi
8:00 PM39 °FPassing clouds.9 mph81%29.88 "Hg15 mi
7:00 PM39 °FPartly sunny.9 mph75%29.90 "Hg15 mi
6:00 PM43 °FPartly sunny.8 mph61%29.93 "Hg15 mi
5:00 PM43 °FPartly sunny.7 mph61%29.94 "Hg15 mi
4:00 PM43 °FPartly sunny.8 mph61%29.96 "Hg15 mi
3:00 PM43 °FPartly sunny.12 mph61%29.98 "Hg15 mi
2:00 PM43 °FPartly sunny.8 mph66%30.00 "Hg15 mi
1:01 PMN/ABroken clouds.N/AN/AN/A15 mi
12:00 PM43 °FScattered clouds.16 mph71%30.01 "Hg15 mi
11:00 AM41 °FScattered clouds.13 mph70%30.02 "Hg15 mi
Weather by CustomWeather, © 2015

See weather overviewHow to use our weather pages